Location: Boone Canyon
(38.3180°N, 119.2504°W)
Time: 18:19:55
(UTC+00:00)

ADEOS - Pass Details

Date: 18 September 2020
Orbit: 792 x 795 km, 98.9° (Epoch: 19 October)

Event Time Altitude Azimuth Distance (km) Brightness Sun altitude
Rises 12:15:30 0° 15° (NNE) 3,299 7.2 -17.5°
Reaches altitude 10° 12:17:51 10° 17° (NNE) 2,365 6.5 -17.0°
Maximum altitude 12:23:04 74° 102° (ESE) 825 3.8 -16.1°
Drops below altitude 10° 12:28:15 10° 188° (S) 2,350 5.8 -15.1°
Sets 12:30:34 0° 190° (S) 3,275 6.5 -14.6°
